This is the latest recevied weather packets stored in our database for station/object VE1RCI-13. If no packets are shown the sender has not sent any weather packets the latest 10 day(s).
| Time | Temp. | Humidity | Pressure | Rain* | Wind** | Luminosity | Snow |
|---|---|---|---|---|---|---|---|
| 1777928570 | 14.44° C | 51% | 1003.7 hPa | - | - | - | - |
| 1777927958 | 15° C | 50% | 1003.7 hPa | - | - | - | - |
| 1777927346 | 15° C | 49% | 1003.6 hPa | - | - | - | - |
| 1777926734 | 15.56° C | 48% | 1003.6 hPa | - | - | - | - |
| 1777926122 | 16.11° C | 46% | 1003.5 hPa | - | - | - | - |
| 1777925509 | 16.11° C | 43% | 1003.3 hPa | - | - | - | - |
| 1777924898 | 16.67° C | 42% | 1003.1 hPa | - | - | - | - |
| 1777924285 | 16.67° C | 48% | 1002.7 hPa | - | - | - | - |
| 1777923673 | 16.67° C | 49% | 1002.9 hPa | - | - | - | - |
| 1777923061 | 16.67° C | 48% | 1002.8 hPa | - | - | - | - |
| 1777922449 | 16.67° C | 47% | 1002.6 hPa | - | - | - | - |
| 1777921836 | 16.67° C | 47% | 1002.6 hPa | - | - | - | - |
| 1777921224 | 16.67° C | 44% | 1002.4 hPa | - | - | - | - |
| 1777920612 | 16.67° C | 48% | 1002.3 hPa | - | - | - | - |
| 1777920000 | 16.67° C | 49% | 1002.5 hPa | - | - | - | - |
| 1777919388 | 16.67° C | 46% | 1002.6 hPa | - | - | - | - |
| 1777918776 | 16.67° C | 46% | 1002.7 hPa | - | - | - | - |
| 1777918163 | 16.11° C | 50% | 1002.6 hPa | - | - | - | - |
| 1777917551 | 16.11° C | 50% | 1002.8 hPa | - | - | - | - |
| 1777916939 | 16.11° C | 52% | 1002.5 hPa | - | - | - | - |
| 1777916327 | 16.11° C | 53% | 1002.7 hPa | - | - | - | - |
| 1777915715 | 15.56° C | 53% | 1002.8 hPa | - | - | - | - |
| 1777915103 | 15.56° C | 53% | 1002.7 hPa | - | - | - | - |
| 1777914491 | 15.56° C | 54% | 1002.5 hPa | - | - | - | - |
| 1777913878 | 15° C | 57% | 1002.7 hPa | - | - | - | - |
* Rain since midnight (hover to see other rain measurements)
** Current wind speed in m/s (hover to see current wind gust speed)